TimeEST,TemperatureF,Dew PointF,Humidity,Sea Level PressureIn,VisibilityMPH,Wind Direction,Wind SpeedMPH,Gust SpeedMPH,PrecipitationIn,Events,Conditions,WindDirDegrees,DateUTC
12:15 AM,39.2,35.6,87,30.09,10.0,Calm,Calm,-,0.00,,Clear,0,2013-02-05 05:15:00
12:55 AM,41.0,35.6,81,30.07,10.0,Calm,Calm,-,0.00,,Clear,0,2013-02-05 05:55:00
1:15 AM,41.0,35.6,81,30.07,10.0,Calm,Calm,-,0.00,,Clear,0,2013-02-05 06:15:00
1:35 AM,39.2,35.6,87,30.06,10.0,Calm,Calm,-,0.00,,Clear,0,2013-02-05 06:35:00
2:15 AM,39.2,35.6,87,30.04,10.0,Calm,Calm,-,0.00,,Clear,0,2013-02-05 07:15:00
2:35 AM,39.2,35.6,87,30.04,10.0,Calm,Calm,-,0.00,,Clear,0,2013-02-05 07:35:00
2:55 AM,37.4,35.6,93,30.04,10.0,Calm,Calm,-,0.00,,Clear,0,2013-02-05 07:55:00
3:15 AM,37.4,35.6,93,30.03,10.0,Calm,Calm,-,0.00,,Clear,0,2013-02-05 08:15:00
3:35 AM,37.4,33.8,87,30.03,10.0,Calm,Calm,-,0.00,,Clear,0,2013-02-05 08:35:00
4:15 AM,37.4,33.8,87,30.03,10.0,Calm,Calm,-,0.00,,Clear,0,2013-02-05 09:15:00
4:35 AM,37.4,33.8,87,30.02,10.0,Calm,Calm,-,0.00,,Clear,0,2013-02-05 09:35:00
4:55 AM,37.4,33.8,87,30.02,10.0,Calm,Calm,-,0.00,,Clear,0,2013-02-05 09:55:00
5:15 AM,37.4,33.8,87,30.03,10.0,Calm,Calm,-,0.00,,Clear,0,2013-02-05 10:15:00
5:35 AM,37.4,33.8,87,30.03,10.0,Calm,Calm,-,0.00,,Clear,0,2013-02-05 10:35:00
5:55 AM,37.4,33.8,87,30.03,10.0,Calm,Calm,-,0.00,,Clear,0,2013-02-05 10:55:00
6:15 AM,37.4,33.8,87,30.03,9.0,Calm,Calm,-,0.00,,Clear,0,2013-02-05 11:15:00
6:35 AM,35.6,33.8,93,30.04,8.0,Calm,Calm,-,0.00,,Clear,0,2013-02-05 11:35:00
7:15 AM,37.4,33.8,87,30.05,10.0,Calm,Calm,-,0.00,,Clear,0,2013-02-05 12:15:00
7:35 AM,37.4,33.8,87,30.07,10.0,Calm,Calm,-,0.00,,Clear,0,2013-02-05 12:35:00
7:55 AM,39.2,35.6,87,30.08,10.0,Calm,Calm,-,0.00,,Clear,0,2013-02-05 12:55:00
8:15 AM,39.2,37.4,93,30.08,10.0,Calm,Calm,-,0.00,,Clear,0,2013-02-05 13:15:00
8:35 AM,42.8,39.2,87,30.08,10.0,Calm,Calm,-,0.00,,Clear,0,2013-02-05 13:35:00
8:55 AM,51.8,44.6,76,30.08,10.0,SW,4.6,-,0.00,,Clear,220,2013-02-05 13:55:00
9:15 AM,51.8,44.6,76,30.08,10.0,WSW,5.8,-,0.00,,Clear,240,2013-02-05 14:15:00
9:35 AM,53.6,46.4,77,30.10,10.0,WSW,5.8,-,0.00,,Clear,240,2013-02-05 14:35:00
10:15 AM,57.2,46.4,67,30.09,10.0,West,8.1,-,0.00,,Clear,260,2013-02-05 15:15:00
10:35 AM,59.0,46.4,63,30.08,10.0,West,10.4,-,0.00,,Partly Cloudy,260,2013-02-05 15:35:00
10:55 AM,60.8,46.4,59,30.08,10.0,West,9.2,-,0.00,,Clear,270,2013-02-05 15:55:00
11:15 AM,62.6,46.4,55,30.08,10.0,West,8.1,-,0.00,,Clear,260,2013-02-05 16:15:00
11:35 AM,64.4,46.4,52,30.07,10.0,West,11.5,-,0.00,,Clear,260,2013-02-05 16:35:00
11:55 AM,64.4,46.4,52,30.06,10.0,West,9.2,-,0.00,,Clear,260,2013-02-05 16:55:00
12:15 PM,64.4,44.6,49,30.05,10.0,WSW,10.4,-,0.00,,Clear,240,2013-02-05 17:15:00
12:35 PM,66.2,44.6,46,30.04,10.0,WSW,11.5,20.7,0.00,,Clear,240,2013-02-05 17:35:00
12:55 PM,66.2,44.6,46,30.03,10.0,West,11.5,18.4,0.00,,Clear,260,2013-02-05 17:55:00
1:15 PM,66.2,44.6,46,30.02,10.0,WSW,8.1,19.6,0.00,,Clear,250,2013-02-05 18:15:00
1:35 PM,68.0,44.6,43,30.01,10.0,SW,9.2,-,0.00,,Clear,230,2013-02-05 18:35:00
1:55 PM,68.0,42.8,40,30.00,10.0,WSW,6.9,-,0.00,,Clear,250,2013-02-05 18:55:00
2:15 PM,68.0,42.8,40,29.99,10.0,WSW,8.1,20.7,0.00,,Clear,250,2013-02-05 19:15:00
2:35 PM,68.0,46.4,46,29.98,10.0,SSW,11.5,-,0.00,,Clear,210,2013-02-05 19:35:00
2:55 PM,66.2,46.4,49,29.98,10.0,South,16.1,-,0.00,,Clear,190,2013-02-05 19:55:00
3:15 PM,64.4,48.2,56,29.98,10.0,SSW,13.8,-,0.00,,Clear,200,2013-02-05 20:15:00
3:35 PM,62.6,48.2,59,29.98,10.0,South,13.8,-,0.00,,Clear,190,2013-02-05 20:35:00
3:55 PM,64.4,48.2,56,29.98,10.0,SSW,12.7,-,0.00,,Clear,200,2013-02-05 20:55:00
4:15 PM,62.6,48.2,59,29.98,10.0,SW,6.9,17.3,0.00,,Clear,220,2013-02-05 21:15:00
4:35 PM,62.6,48.2,59,29.98,10.0,SW,12.7,16.1,0.00,,Clear,220,2013-02-05 21:35:00
4:55 PM,62.6,48.2,59,29.99,10.0,SSW,9.2,-,0.00,,Clear,210,2013-02-05 21:55:00
5:15 PM,60.8,48.2,63,29.99,10.0,SW,11.5,-,0.00,,Clear,220,2013-02-05 22:15:00
5:35 PM,59.0,48.2,67,29.99,10.0,SW,10.4,-,0.00,,Clear,220,2013-02-05 22:35:00
5:55 PM,59.0,48.2,67,29.99,10.0,SW,5.8,16.1,0.00,,Clear,230,2013-02-05 22:55:00
6:15 PM,57.2,50.0,77,30.00,10.0,SW,8.1,-,0.00,,Clear,220,2013-02-05 23:15:00
6:35 PM,57.2,50.0,77,30.00,10.0,SW,8.1,-,0.00,,Clear,220,2013-02-05 23:35:00
7:15 PM,57.2,50.0,77,30.01,10.0,SW,5.8,-,0.00,,Clear,230,2013-02-06 00:15:00
7:35 PM,55.4,50.0,82,30.01,10.0,SW,6.9,-,0.00,,Clear,230,2013-02-06 00:35:00
7:55 PM,55.4,50.0,82,30.02,10.0,SW,6.9,-,0.00,,Clear,220,2013-02-06 00:55:00
8:15 PM,57.2,50.0,77,30.02,10.0,SW,9.2,-,0.00,,Clear,220,2013-02-06 01:15:00
9:35 PM,55.4,48.2,77,30.03,10.0,SW,6.9,-,0.00,,Clear,220,2013-02-06 02:35:00
10:15 PM,55.4,48.2,77,30.04,10.0,SW,3.5,-,0.00,,Clear,220,2013-02-06 03:15:00
10:55 PM,55.4,48.2,77,30.04,10.0,SW,4.6,-,0.00,,Clear,230,2013-02-06 03:55:00
11:15 PM,53.6,48.2,82,30.05,10.0,Calm,Calm,-,0.00,,Clear,0,2013-02-06 04:15:00
11:35 PM,53.6,48.2,82,30.04,10.0,Calm,Calm,-,0.00,,Clear,0,2013-02-06 04:35:00